When you browse on this site, cookies collect data to enhance your experience and personalize the content and advertising you see.
Visit our Privacy Policy to learn more. By continuing to use the site, you agree to this use of cookies and data.
  • In Italy
  • List of Countries
  • For 7 days
  • Water Temperature
  • Satellite Maps
  • Weather Map
  • Weather Widgets
  • user-avatar
    Login

    Hourly Weather Ghent

    Today, 22 March, Friday

    Time Temperature Precipitation Wind Pressure Humidity
    00:00 +7°C° 0 mm 2 mps 773 mmHg 93%
    01:00 +7°C° 0 mm 2 mps 773 mmHg 94%
    02:00 +7°C° 0 mm 2 mps 772 mmHg 94%
    03:00 +7°C° 0 mm 2 mps 772 mmHg 94%
    04:00 +8°C° 0 mm 1 mps 772 mmHg 93%
    05:00 +7°C° 0 mm 1 mps 772 mmHg 92%
    06:00 +7°C° 0 mm 1 mps 772 mmHg 88%
    07:00 +7°C° 0 mm 2 mps 772 mmHg 79%
    08:00 +9°C° 0 mm 2 mps 772 mmHg 70%
    09:00 +12°C° 0 mm 2 mps 771 mmHg 61%
    10:00 +14°C° 0 mm 2 mps 771 mmHg 56%
    11:00 +15°C° 0 mm 2 mps 771 mmHg 51%
    12:00 +16°C° 0 mm 2 mps 771 mmHg 47%
    13:00 +17°C° 0 mm 2 mps 770 mmHg 46%
    14:00 +17°C° 0 mm 2 mps 770 mmHg 46%
    15:00 +18°C° 0 mm 2 mps 769 mmHg 45%
    16:00 +16°C° 0 mm 2 mps 769 mmHg 52%
    17:00 +15°C° 0 mm 2 mps 769 mmHg 59%
    18:00 +13°C° 0 mm 2 mps 769 mmHg 66%
    19:00 +12°C° 0 mm 2 mps 769 mmHg 72%
    20:00 +10°C° 0 mm 2 mps 770 mmHg 79%
    21:00 +9°C° 0 mm 2 mps 770 mmHg 86%
    22:00 +8°C° 0 mm 2 mps 770 mmHg 88%
    23:00 +8°C° 0 mm 2 mps 770 mmHg 90%

    Tomorrow, 23 March, Saturday

    Time Temperature Precipitation Wind Pressure Humidity
    00:00 +7°C° 0 mm 2 mps 770 mmHg 93%
    01:00 +8°C° 0 mm 1 mps 770 mmHg 93%
    02:00 +8°C° 0 mm 1 mps 770 mmHg 94%
    03:00 +8°C° 0 mm 1 mps 770 mmHg 94%
    04:00 +8°C° 0 mm 1 mps 771 mmHg 93%
    05:00 +8°C° 0 mm 1 mps 771 mmHg 93%
    06:00 +8°C° 0 mm 1 mps 771 mmHg 92%
    07:00 +9°C° 0 mm 1 mps 771 mmHg 88%
    08:00 +10°C° 0 mm 1 mps 771 mmHg 84%
    09:00 +12°C° 0 mm 2 mps 772 mmHg 80%
    10:00 +13°C° 0 mm 2 mps 772 mmHg 76%
    11:00 +14°C° 0 mm 2 mps 772 mmHg 72%
    12:00 +15°C° 0 mm 2 mps 772 mmHg 67%
    13:00 +13°C° 0 mm 3 mps 772 mmHg 71%
    14:00 +12°C° 0 mm 4 mps 772 mmHg 75%
    15:00 +11°C° 0 mm 4 mps 772 mmHg 79%
    16:00 +11°C° 0 mm 4 mps 772 mmHg 78%
    17:00 +10°C° 0 mm 4 mps 772 mmHg 77%
    18:00 +10°C° 0 mm 4 mps 772 mmHg 76%
    19:00 +8°C° 0 mm 4 mps 773 mmHg 76%
    20:00 +8°C° 0 mm 3 mps 773 mmHg 76%
    21:00 +8°C° 0 mm 3 mps 773 mmHg 77%
    22:00 +7°C° 0 mm 3 mps 773 mmHg 75%
    23:00 +7°C° 0 mm 3 mps 773 mmHg 74%

    Day after tomorrow, 24 March, Sunday

    Time Temperature Precipitation Wind Pressure Humidity
    00:00 +7°C° 0 mm 3 mps 773 mmHg 73%
    01:00 +7°C° 0 mm 3 mps 772 mmHg 72%
    02:00 +5°C° 0 mm 3 mps 772 mmHg 72%
    03:00 +5°C° 0 mm 3 mps 772 mmHg 71%
    04:00 +5°C° 0 mm 3 mps 772 mmHg 72%
    05:00 +4°C° 0 mm 3 mps 772 mmHg 73%
    06:00 +4°C° 0 mm 3 mps 772 mmHg 74%
    07:00 +6°C° 0 mm 2 mps 772 mmHg 70%
    08:00 +7°C° 0 mm 2 mps 772 mmHg 67%
    09:00 +8°C° 0 mm 2 mps 772 mmHg 63%
    10:00 +9°C° 0 mm 3 mps 772 mmHg 57%
    11:00 +10°C° 0 mm 3 mps 772 mmHg 50%
    12:00 +11°C° 0 mm 4 mps 772 mmHg 44%
    13:00 +11°C° 0 mm 4 mps 772 mmHg 45%
    14:00 +11°C° 0 mm 4 mps 772 mmHg 46%
    15:00 +10°C° 0 mm 5 mps 772 mmHg 48%
    16:00 +8°C° 0 mm 4 mps 772 mmHg 53%
    17:00 +8°C° 0 mm 3 mps 772 mmHg 59%
    18:00 +7°C° 0 mm 2 mps 772 mmHg 64%
    19:00 +6°C° 0 mm 2 mps 772 mmHg 68%
    20:00 +6°C° 0 mm 2 mps 773 mmHg 71%
    21:00 +5°C° 0 mm 2 mps 773 mmHg 74%
    22:00 +5°C° 0 mm 2 mps 773 mmHg 76%
    23:00 +5°C° 0 mm 2 mps 773 mmHg 78%

    25 March, Monday

    Time Temperature Precipitation Wind Pressure Humidity
    00:00 +4°C° 0 mm 2 mps 773 mmHg 80%
    01:00 +4°C° 0 mm 2 mps 772 mmHg 81%
    02:00 +4°C° 0 mm 2 mps 772 mmHg 82%
    03:00 +3°C° 0 mm 3 mps 772 mmHg 83%
    04:00 +3°C° 0 mm 3 mps 772 mmHg 85%
    05:00 +3°C° 0 mm 3 mps 772 mmHg 87%
    06:00 +3°C° 0 mm 3 mps 772 mmHg 90%
    07:00 +5°C° 0 mm 3 mps 772 mmHg 84%
    08:00 +6°C° 0 mm 4 mps 772 mmHg 79%
    09:00 +7°C° 0 mm 5 mps 772 mmHg 74%
    10:00 +8°C° 0.1 mm 6 mps 773 mmHg 70%
    11:00 +8°C° 0.1 mm 6 mps 773 mmHg 66%
    12:00 +9°C° 0.1 mm 7 mps 773 mmHg 63%
    13:00 +9°C° 0 mm 7 mps 773 mmHg 60%
    14:00 +9°C° 0 mm 7 mps 773 mmHg 57%
    15:00 +9°C° 0 mm 7 mps 773 mmHg 54%
    16:00 +8°C° 0 mm 6 mps 774 mmHg 59%
    17:00 +7°C° 0 mm 5 mps 774 mmHg 64%
    18:00 +6°C° 0 mm 4 mps 774 mmHg 69%
    19:00 +5°C° 0 mm 3 mps 775 mmHg 72%
    20:00 +4°C° 0 mm 3 mps 776 mmHg 76%
    21:00 +5°C° 0 mm 2 mps 776 mmHg 79%
    22:00 +4°C° 0 mm 2 mps 777 mmHg 81%
    23:00 +4°C° 0 mm 2 mps 777 mmHg 83%

    26 March, Tuesday

    Time Temperature Precipitation Wind Pressure Humidity
    00:00 +5°C° 0 mm 1 mps 777 mmHg 85%
    01:00 +4°C° 0 mm 1 mps 777 mmHg 86%
    02:00 +4°C° 0 mm 1 mps 777 mmHg 87%
    03:00 +4°C° 0 mm 1 mps 777 mmHg 87%
    04:00 +4°C° 0 mm 1 mps 777 mmHg 88%
    05:00 +4°C° 0 mm 1 mps 777 mmHg 88%
    06:00 +2°C° 0 mm 0 mps 777 mmHg 88%
    07:00 +4°C° 0 mm 0 mps 777 mmHg 81%
    08:00 +7°C° 0 mm 1 mps 777 mmHg 74%
    09:00 +9°C° 0 mm 1 mps 777 mmHg 67%
    10:00 +10°C° 0 mm 1 mps 777 mmHg 61%
    11:00 +11°C° 0 mm 1 mps 777 mmHg 55%
    12:00 +12°C° 0 mm 1 mps 777 mmHg 49%
    13:00 +12°C° 0 mm 2 mps 777 mmHg 49%
    14:00 +12°C° 0 mm 3 mps 776 mmHg 49%
    15:00 +12°C° 0 mm 3 mps 776 mmHg 49%
    16:00 +10°C° 0 mm 3 mps 776 mmHg 55%
    17:00 +9°C° 0 mm 2 mps 776 mmHg 61%
    18:00 +8°C° 0 mm 2 mps 776 mmHg 66%
    19:00 +7°C° 0 mm 2 mps 776 mmHg 68%
    20:00 +7°C° 0 mm 1 mps 776 mmHg 69%
    21:00 +6°C° 0 mm 1 mps 776 mmHg 70%
    22:00 +6°C° 0 mm 1 mps 776 mmHg 69%
    23:00 +6°C° 0 mm 1 mps 776 mmHg 68%

    27 March, Wednesday

    Time Temperature Precipitation Wind Pressure Humidity
    00:00 +5°C° 0 mm 2 mps 776 mmHg 67%
    01:00 +5°C° 0 mm 2 mps 776 mmHg 69%
    02:00 +5°C° 0 mm 2 mps 776 mmHg 71%
    03:00 +5°C° 0 mm 2 mps 775 mmHg 73%
    04:00 +5°C° 0 mm 2 mps 776 mmHg 77%
    05:00 +5°C° 0 mm 2 mps 776 mmHg 81%
    06:00 +5°C° 0 mm 2 mps 776 mmHg 85%
    07:00 +7°C° 0 mm 2 mps 776 mmHg 81%
    08:00 +9°C° 0 mm 2 mps 776 mmHg 77%
    09:00 +12°C° 0 mm 2 mps 776 mmHg 73%
    10:00 +12°C° 0 mm 3 mps 776 mmHg 67%
    11:00 +12°C° 0 mm 3 mps 776 mmHg 61%
    12:00 +13°C° 0 mm 3 mps 776 mmHg 55%
    13:00 +13°C° 0 mm 3 mps 776 mmHg 56%
    14:00 +13°C° 0 mm 4 mps 775 mmHg 57%
    15:00 +13°C° 0 mm 4 mps 775 mmHg 58%
    16:00 +12°C° 0 mm 4 mps 775 mmHg 64%
    17:00 +11°C° 0 mm 3 mps 775 mmHg 70%
    18:00 +10°C° 0 mm 3 mps 775 mmHg 76%
    19:00 +9°C° 0 mm 2 mps 776 mmHg 79%
    20:00 +8°C° 0 mm 2 mps 776 mmHg 82%
    21:00 +7°C° 0 mm 2 mps 776 mmHg 85%
    22:00 +7°C° 0 mm 2 mps 776 mmHg 86%
    23:00 +7°C° 0 mm 2 mps 777 mmHg 88%
    Show more